Regional Weather Roundup
Issued by NWS Upton, NY

Current Version | Previous Version | Graphics & Text | Print | Product List | Glossary On
Versions: 1 2 3 4 5 6 7 8 9 10 11 12 13 14 15 16 17 18 19 20 21 22 23 24 25 26 27
000
ASUS41 KOKX 250209
RWROKX

REGIONAL WEATHER ROUNDUP
NATIONAL WEATHER SERVICE NEW YORK NY
1000 PM EDT SAT JUN 24 2017

NOTE: "FAIR" INDICATES FEW OR NO CLOUDS BELOW 12,000 FEET WITH NO
SIGNIFICANT WEATHER AND/OR OBSTRUCTIONS TO VISIBILITY.

NYZ071-072-176-178-NJZ106-104-250300-
NEW YORK CITY METRO AREA

CITY           SKY/WX    TMP DP  RH WIND       PRES   REMARKS
Central Park   PTCLDY    80  58  46 VRB3      29.90R
Bronx Bot Gard   N/A     81  57  44 SW6       29.88S
LaGuardia APRT PTCLDY    82  60  47 SW14G21   29.86R
Kennedy INTL   MOCLDY    77  64  64 SW12      29.88R
Breezy Point     N/A     72 N/A N/A SW7         N/A
Newark/Liberty PTCLDY    80  59  48 SW14      29.87R
Teterboro      CLEAR     80  59  48 SW10      29.86R
$$

NYZ177-179-078>081-250300-
LONG ISLAND NEW YORK

CITY           SKY/WX    TMP DP  RH WIND       PRES   REMARKS
Jones Beach      N/A     73 N/A N/A SW6         N/A
Matinecock PT  NOT AVBL
Farmingdale    NOT AVBL
MacArthur/ISP  MOCLDY    74  62  66 SW6       29.86R
Shirley        PTCLDY    74  62  66 S5        29.87R
Mt Sinai Harb    N/A     72 N/A N/A S5          N/A
Westhampton    PTCLDY    70  58  65 SW5       29.89R
East Hampton   FAIR      66  59  79 CALM      29.86R
Montauk          N/A     74  59  59 SW5       29.87R
$$

NYZ052-065-067-250300-
HUDSON VALLEY

CITY           SKY/WX    TMP DP  RH WIND       PRES   REMARKS
White Plains   CLEAR     75  55  50 W3        29.88R
Larchmont Harb   N/A     79 N/A N/A SW13        N/A
Croton O-T Hud   N/A     79 N/A N/A SW7         N/A
Newburgh       PTCLDY    73  61  64 W6        29.87R
Montgomery     CLOUDY    73  59  61 NW12      29.88R
Poughkeepsie   CLOUDY    70  60  70 MISG      29.87R
Albany         LGT RAIN  70  56  61 W9        29.88R
$$

NJZ001-105-106-008-010-013-015-019>022-104-250300-
NEW JERSEY

CITY           SKY/WX    TMP DP  RH WIND       PRES   REMARKS
Newark/Liberty PTCLDY    80  59  48 SW14      29.87R
Teterboro      CLEAR     80  59  48 SW10      29.86R
Caldwell       CLEAR     78  59  51 VRB3      29.88R
Somerville     CLEAR     70  63  78 CALM      29.88R
Linden         FAIR      79  57  46 W5        29.89R
Perth Amboy      N/A     79 N/A N/A W7          N/A
Sussex         CLEAR     70  63  78 SW3       29.89R
Andover          N/A     68  62  81 CALM      29.91R
Trenton        CLEAR     77  60  55 SW7       29.90R
Millville      CLEAR     69  68  96 CALM      29.93R
Atlantic City  CLEAR     75  64  68 SW5       29.92R
Wrightstown    NOT AVBL
Toms River     CLEAR     72  61  68 SW6       29.92R
Belmar         PTCLDY    75  61  61 SW6       29.91R
$$

PAZ047>061-062-071-250300-
EASTERN PENNSYLVANIA

CITY           SKY/WX    TMP DP  RH WIND       PRES   REMARKS
Philadelphia   PTCLDY    78  60  53 SW7       29.92R
Allentown      CLEAR     73  58  59 W6        29.91R
Scranton       LGT RAIN  67  62  84 VRB5      29.95R
$$

CTZ002-004>006-009-010-012-RIZ004-006-007-MAZ004-011-015-250300-
SOUTHERN NEW ENGLAND
 IN CT

CITY           SKY/WX    TMP DP  RH WIND       PRES   REMARKS
Bradley INTL   PTCLDY    70  59  68 SW5       29.84R
Hartford       CLEAR     71  60  68 S5        29.83R
Danbury        CLEAR     66  60  81 CALM      29.88R
Wtrbury/Oxford CLEAR     70  54  56 CALM      29.88R
Bridgeport     CLEAR     74  61  63 CALM      29.85R
Meriden        CLEAR     66  61  84 CALM      29.85R
New Haven      PTCLDY    72  61  68 S5        29.86R
Chester        FAIR      73  57  56 CALM      29.87R
Groton         CLEAR     70  61  73 W6        29.84R
Wilimantic     CLEAR     69  61  75 CALM      29.85R

 IN RI

CITY           SKY/WX    TMP DP  RH WIND       PRES   REMARKS
Providence     CLEAR     72  56  57 SW3       29.84R
Block Island   CLOUDY    72  60  66 W10       29.86R
Westerly       CLEAR     71  61  70 SW3       29.85R
 IN MA

CITY           SKY/WX    TMP DP  RH WIND       PRES   REMARKS
Boston         CLEAR     78  54  43 W15       29.80R
Worcester      CLEAR     68  50  52 W6        29.86R
Westfield      CLEAR     66  61  84 CALM      29.84R
Provincetown   CLEAR     69  61  75 W9        29.80R
Nantucket      PTCLDY    66  61  84 W12       29.82R
$$

ANZ330-335-338-340-345-350-353-355-250300-
COASTAL MARINE OBSERVATIONS


STATION/POSITION TIME  SKY/WX   TEMP    WIND        PRES    VSBY  WAVE
                                AIR SEA DIR/SP/G                  HT/PER
                 (UTC)          (F)     (DEG/KT/KT) (MB)    (MI)  (FT/S)
NY HARB ENTRANCE 0150            72 67  220/  8/  8 1011.5          4/ 9
20 S FIRE ISLAND 0150            72 69  230/ 10/ 10 1011.2          6/ 8
GREAT SOUTH BAY  0130            76 76  240/ 10/ 12   N/A
23 SSW MONTAUK P 0050            69 64              1010.3          7/ 8
15 E BARNEGAT LI 0130               65                N/A           5/ 8
HUDSON CANYON    0050            70 66  230/  8/  8 1011.4          6/ 9
KINGS POINT      0130            79 67  270/ 12/ 14 1010.8
EXECUTION ROCKS  0145            75     220/ 10/ 14   N/A
CENTRAL LI SOUND 0130            73     230/  8/  8   N/A           1
EASTERN LI SOUND NOT AVBL
ROBBINS REEF     0124                   240/ 12/ 16 1011.5
$$


>>>>>>>>>>>>>>>>>>>>>>>>>>>> KEY <<<<<<<<<<<<<<<<<<<<<<<<<<<
>                                                          <
>     SKY/WX - Sky Condition/Present Weather               <
>     TMP    - Temperature in Fahrenheit                   <
>     DP     - Dew Point in Fahrenheit                     <
>     RH     - Relative Humidity in Percent                <
>     WIND   - Direction (from) and Speed in MPH           <
>     PRES   - Mean Sea Level Pressure (inches of Hg)      <
>     WCI    - Wind Chill Index                            <
>     VSB    - VISIBILITY IN MILES                         <
>     HX     - HEAT INDEX                                  <
>     TC     - TEMPERATURE IN CELSIUS                      <
>     VRB    - VARIABLE WIND DIRECTION                     <
>                                                          <
>>>>>>>>>>>>>>>>>>>>>>>>>>>> KEY <<<<<<<<<<<<<<<<<<<<<<<<<<<




USA.gov is the U.S. government's official web portal to all federal, state and local government web resources and services.